Theta_e
294 295 295 296 296 296 296 297 297 297 297 297 296 296 296 295 294 294 295 296 297 298 299 298 298 299 301 304 304 305 305 306 306 306 307 308 308 308 308 308 308 308 309 310 309 309 309 308 308 308 307 307
292 293 295 295 295 294 295 295 295 296 295 295 294 294 293 293 291 292 292 293 294 296 296 295 297 298 300 302 303 303 303 303 304 305 306 306 306 306 305 306 306 306 307 308 308 307 307 306 305 305 305 302
287 291 293 294 294 294 294 294 294 295 294 293 292 292 291 291 289 289 290 291 292 293 294 293 294 295 298 299 301 301 301 301 302 303 304 304 304 304 303 303 302 303 304 305 306 306 305 304 303 303 301 300
286 288 292 292 292 292 292 292 293 293 292 291 290 290 290 289 287 287 286 289 287 290 291 290 290 293 296 297 297 299 298 298 300 301 302 302 302 301 300 299 298 299 300 302 303 303 303 302 302 297 298 299
286 287 290 288 288 289 290 290 290 290 289 289 288 288 288 287 286 286 286 284 286 288 287 288 290 291 293 295 295 295 294 295 297 299 299 299 300 299 297 295 293 293 295 298 299 300 300 300 296 297 297 298
286 287 287 285 285 285 287 287 288 286 286 287 285 286 285 285 285 285 285 285 287 286 286 286 288 289 290 292 293 294 292 292 293 296 297 297 297 296 294 292 288 288 290 292 295 296 297 295 295 296 296 296
285 285 285 284 284 285 286 286 286 284 285 284 284 284 284 285 285 285 285 285 286 286 286 285 287 287 289 289 290 291 289 289 290 292 292 292 293 292 290 286 287 287 288 288 291 292 291 292 293 294 295 295
284 285 284 283 284 284 284 284 284 283 283 283 283 283 284 284 284 285 285 285 285 285 284 284 285 286 285 286 286 287 285 286 286 288 288 288 289 286 285 284 284 285 286 287 287 287 288 289 290 291 294 294
284 284 282 283 283 284 283 283 283 282 282 283 283 283 283 284 285 284 284 284 284 283 283 283 283 284 284 284 284 285 282 282 282 283 282 282 283 282 282 282 282 283 284 285 286 286 288 288 288 289 291 292
284 282 282 282 283 283 283 282 281 281 282 282 282 282 282 284 283 283 283 283 283 283 283 283 283 283 283 283 283 283 282 281 281 281 281 281 281 281 282 282 282 282 283 282 283 284 286 287 287 288 289 290
281 281 281 282 284 283 284 282 281 281 281 281 281 281 282 282 281 281 282 282 282 282 283 282 282 282 282 282 282 282 281 281 281 280 280 280 281 281 281 281 281 282 282 282 281 282 284 285 285 286 288 288
280 281 281 283 282 281 285 281 281 280 281 281 280 281 281 281 281 281 281 281 281 282 282 282 282 282 282 281 281 282 281 281 280 279 279 280 280 280 280 280 280 281 281 281 281 281 282 283 283 285 287 288
280 280 281 281 280 280 284 280 280 280 280 280 280 280 280 281 280 281 281 281 281 282 281 282 281 281 281 281 281 281 280 280 280 279 279 279 280 279 279 280 279 280 280 281 281 281 281 281 282 284 285 286
280 280 280 281 280 280 282 279 280 280 279 279 279 279 280 279 280 280 279 279 280 280 281 281 281 281 280 279 280 280 280 280 279 279 279 279 279 279 279 279 279 280 280 280 280 280 280 280 281 283 284 285
279 280 279 281 279 279 280 280 280 279 279 279 279 279 279 279 279 281 279 278 279 280 279 280 280 279 279 279 279 279 279 280 280 279 279 279 279 278 279 279 279 279 279 279 280 280 280 280 281 281 283 284
280 280 279 281 279 279 280 280 279 278 278 279 278 279 279 278 278 280 279 278 278 280 278 278 278 278 278 278 278 279 279 279 279 279 279 279 279 279 279 278 279 279 279 278 279 280 279 280 280 281 281 282
279 279 279 279 279 279 280 279 278 277 277 277 278 278 278 278 278 280 278 278 278 279 278 277 277 277 277 278 278 278 278 278 279 279 278 278 279 278 279 278 278 279 279 278 278 279 279 280 280 280 281 281
279 279 279 280 278 278 278 277 277 277 277 276 277 277 277 277 277 279 278 278 277 278 278 277 277 276 276 277 278 278 278 277 278 278 277 277 277 277 277 276 277 277 277 278 278 278 279 279 279 280 280 280
279 279 279 278 277 277 277 277 277 276 276 276 276 276 276 276 276 278 277 277 277 276 277 276 276 276 276 277 277 277 277 277 277 277 277 277 276 276 276 276 277 277 277 277 277 277 278 278 279 280 279 280
278 278 277 277 278 277 277 276 276 276 275 275 275 276 276 275 276 278 276 277 276 275 276 276 275 276 276 276 277 276 276 277 276 277 276 277 276 274 275 276 275 276 276 276 276 277 277 278 278 278 279 280
278 276 275 275 275 275 276 275 275 275 275 275 275 275 275 275 276 277 275 275 276 275 275 276 275 275 276 276 276 275 276 276 276 276 276 276 276 275 274 275 275 275 276 276 276 276 277 277 278 278 278 279
276 276 275 275 275 276 276 275 275 275 275 274 274 275 274 275 275 275 275 274 275 274 275 276 275 275 275 275 275 275 275 275 276 276 276 275 276 275 275 274 274 274 275 276 276 276 276 277 277 277 278 279
277 276 275 274 274 274 274 274 274 274 274 274 274 274 274 275 275 275 274 274 274 274 274 274 275 274 274 275 274 274 275 275 275 275 275 275 274 276 276 275 274 274 275 275 275 276 276 277 277 278 278 279
276 276 275 274 274 273 273 274 274 274 274 274 274 274 274 274 274 274 274 274 274 274 274 274 274 274 274 274 274 274 274 274 274 274 274 274 274 274 275 275 275 275 274 275 275 275 276 277 277 277 278 278
274 274 273 273 272 272 272 272 273 273 274 274 273 273 274 274 274 274 273 274 273 273 273 274 274 273 273 273 274 274 273 273 274 274 274 274 274 274 273 274 275 275 276 274 273 275 275 275 277 278 279 279
275 274 274 273 273 272 272 272 272 272 272 272 273 273 274 274 274 274 273 273 273 273 273 273 273 273 273 273 273 274 273 273 274 273 273 273 273 274 273 273 275 275 275 272 271 270 271 274 278 280 280 282
274 274 274 273 273 272 272 273 273 272 273 273 273 273 273 274 274 273 273 273 273 272 272 273 273 272 273 273 273 272 271 272 272 272 272 272 272 272 273 273 275 274 273 270 272 272 272 270 273 276 277 279
274 274 274 274 273 272 272 271 273 272 273 272 272 272 273 273 273 273 273 273 272 272 272 272 272 273 273 272 272 271 271 271 271 271 271 272 272 272 270 271 272 273 273 273 272 267 269 271 270 270 271 273
276 274 274 273 273 273 272 272 272 271 271 271 272 272 272 272 273 273 272 272 272 272 272 273 273 272 272 272 272 272 271 271 271 271 272 272 271 271 270 270 270 271 273 273 275 271 269 267 267 269 272 272
275 274 272 271 270 270 270 269 270 269 270 270 270 270 272 272 272 272 272 272 272 272 272 272 272 273 272 271 271 271 271 271 271 271 271 272 271 270 271 270 269 269 272 274 274 273 273 273 269 269 270 270
274 272 272 271 271 271 270 269 270 271 271 271 271 271 271 271 272 272 271 271 271 272 272 272 272 272 272 271 271 272 271 271 271 271 271 272 271 271 272 270 268 269 270 271 272 273 273 273 273 272 270 264
Wind_Speed
15 16 17 17 17 17 17 17 17 17 17 17 18 18 18 18 18 19 19 19 20 19 19 19 20 20 20 20 19 18 18 18 19 20 20 20 20 22 23 25 26 27 30 30 30 30 29 28 27 24 21 9
13 15 16 16 17 16 16 17 17 16 17 17 17 16 17 16 16 17 18 17 18 19 19 19 19 20 19 19 18 18 18 18 18 20 20 19 20 20 22 23 24 26 27 28 28 29 29 28 27 23 21 10
8 14 15 15 15 15 15 15 16 16 16 15 15 15 15 14 14 14 14 16 15 17 18 18 18 19 19 19 17 17 17 16 17 18 19 19 19 20 19 21 22 24 24 26 27 27 27 27 26 24 15 11
6 9 14 14 14 14 14 14 14 15 15 14 13 13 13 13 9 8 8 13 10 14 15 16 16 18 18 18 18 17 16 16 16 17 17 19 19 19 19 19 20 20 22 23 25 26 26 25 24 13 11 12
5 6 11 8 11 12 12 12 13 14 12 11 10 11 10 9 6 4 4 5 7 10 8 13 14 16 17 17 18 17 17 17 16 16 17 17 18 19 18 19 18 19 19 21 23 25 25 25 13 11 12 11
3 4 7 6 5 6 7 8 9 8 8 9 6 10 7 5 5 5 4 4 6 5 8 8 13 13 15 15 17 17 17 16 17 16 16 16 17 17 18 18 8 9 14 19 20 22 24 14 11 12 12 11
3 4 4 4 4 4 6 6 7 6 7 6 7 7 6 6 5 5 5 4 6 6 8 7 10 11 12 13 14 15 15 15 15 16 16 16 15 16 16 8 6 6 7 8 17 17 12 11 12 13 11 10
3 3 3 3 3 3 3 4 4 5 6 5 6 7 6 5 6 6 5 7 8 6 3 4 6 8 8 8 9 11 9 10 11 13 14 14 14 10 6 6 7 7 5 6 7 9 9 9 12 13 11 10
2 2 2 2 3 3 3 3 4 4 5 5 6 6 5 6 6 5 5 4 4 3 3 3 3 3 3 4 5 8 5 6 6 6 6 6 7 5 6 6 6 6 8 7 7 6 7 9 10 11 11 10
2 2 2 3 3 3 2 3 3 4 4 4 5 5 5 5 5 6 5 5 4 4 3 3 2 2 2 3 4 5 4 5 5 5 5 5 6 6 5 5 6 5 6 7 7 7 8 7 8 9 10 11
1 1 1 1 2 3 2 3 3 4 4 4 5 5 5 5 5 5 5 5 5 4 3 3 2 2 2 2 2 3 4 5 5 6 5 5 5 5 5 5 5 5 5 5 7 7 8 8 8 8 8 9
1 1 0 1 2 2 2 3 3 3 4 4 4 5 5 5 5 5 5 6 5 5 3 3 2 1 1 2 1 2 3 4 4 5 5 5 6 5 5 5 6 5 5 5 5 7 7 8 8 8 8 7
1 1 0 0 1 2 2 2 2 3 3 3 4 4 5 6 5 5 6 6 5 4 4 2 2 1 1 1 2 2 3 3 4 4 5 5 5 6 5 5 5 6 5 5 5 6 7 8 8 9 9 9
2 1 1 1 1 2 2 2 2 3 3 3 4 4 5 6 5 4 4 5 5 4 4 3 2 1 1 2 2 2 2 3 3 3 4 5 5 6 6 6 6 6 6 6 5 5 6 7 7 7 8 9
2 2 1 1 1 1 1 2 2 3 3 4 4 4 5 5 5 4 3 4 4 4 3 3 2 2 2 2 2 3 3 3 3 3 3 4 5 5 5 6 6 6 6 6 5 5 6 7 7 7 7 8
3 3 2 1 1 1 2 3 3 3 3 4 4 5 5 5 5 5 3 2 3 3 4 3 3 3 2 3 3 3 3 4 3 3 3 4 4 6 5 5 5 6 6 6 6 5 5 5 6 7 7 7
3 2 2 2 1 2 2 3 3 3 3 4 4 5 5 6 6 5 3 2 1 2 2 2 2 2 3 3 3 3 3 5 4 3 3 3 3 5 4 6 6 5 6 7 7 6 6 5 6 6 7 7
3 3 2 2 1 2 2 3 3 4 4 4 4 5 5 5 6 6 3 2 2 1 0 1 1 2 2 2 3 3 2 3 4 4 4 4 3 4 4 6 6 6 7 6 7 7 7 6 6 6 7 7
4 4 3 2 2 2 2 3 4 4 4 4 4 4 5 6 6 6 2 2 2 2 1 1 1 1 1 2 2 2 2 3 3 4 5 5 5 4 4 5 5 7 6 7 8 8 7 7 7 7 7 7
4 4 3 2 3 3 2 3 4 4 4 4 4 4 5 6 7 4 2 3 2 3 2 2 2 2 2 2 2 2 2 2 3 3 6 5 5 6 5 6 6 6 7 7 8 8 8 8 8 7 7 7
5 4 4 3 3 3 4 4 5 4 4 4 4 4 4 5 5 3 3 3 3 3 3 3 3 3 3 2 3 3 2 2 2 3 4 6 6 6 7 6 8 7 6 7 8 8 9 9 8 8 7 7
5 5 4 3 3 4 5 5 5 5 4 5 5 4 5 4 4 3 3 3 3 3 4 3 3 3 3 3 3 3 3 3 3 3 3 5 6 7 7 7 7 8 8 7 8 8 10 10 8 8 8 8
5 4 4 3 4 4 5 5 5 4 5 5 5 5 6 5 4 3 3 3 3 4 4 3 3 3 3 4 4 4 4 4 3 3 3 4 6 6 6 7 7 8 8 8 8 9 10 10 10 9 9 8
4 4 5 5 4 5 5 4 4 5 5 5 5 6 6 5 4 4 4 4 3 4 4 4 3 3 4 4 4 4 4 4 3 4 4 4 5 6 7 6 6 6 8 8 8 9 8 9 12 12 10 7
5 6 5 5 6 6 4 4 5 5 5 5 6 7 7 6 5 4 4 4 4 4 5 4 3 3 4 4 4 4 3 4 4 4 4 4 3 5 5 6 6 6 8 7 6 5 8 10 11 11 9 7
6 6 5 4 5 4 4 4 5 6 5 5 6 7 7 6 5 4 4 4 4 5 5 5 4 3 4 3 3 3 3 4 4 4 4 4 4 2 3 4 6 6 8 3 7 10 8 5 6 4 1 1
7 6 6 6 4 4 4 4 5 6 6 6 7 7 8 7 6 5 5 5 5 5 5 5 4 4 3 2 2 3 3 3 4 3 4 4 5 5 3 3 3 6 6 6 8 7 6 5 6 3 3 2
8 7 6 6 5 5 5 5 5 7 7 7 8 9 8 8 7 6 5 5 5 5 5 5 5 4 3 2 2 3 4 4 4 3 3 3 4 4 6 3 3 4 6 6 8 6 3 6 4 3 5 10
7 7 6 5 4 4 5 6 6 6 7 7 8 8 7 8 7 6 6 5 6 6 6 6 5 4 3 3 3 4 4 4 4 4 3 3 3 4 5 5 4 4 4 5 4 4 6 4 4 3 7 11
8 8 7 6 5 5 5 6 5 7 7 6 6 7 6 6 7 8 7 6 6 7 6 6 5 5 4 3 4 4 4 4 4 4 3 2 2 4 4 4 5 5 3 2 4 5 1 3 3 7 8 6
9 8 7 9 8 7 7 7 7 6 6 6 7 6 7 7 7 8 8 7 7 7 7 6 6 5 5 4 4 4 4 4 5 4 3 2 2 3 4 4 5 5 4 3 3 3 2 4 4 4 5 1
Wind_Direction
355 354 352 352 354 353 353 352 354 358 3 7 8 10 10 11 12 9 7 5 2 359 360 359 355 352 351 351 347 349 347 347 342 341 341 343 344 348 347 349 352 353 352 348 349 349 352 353 352 357 5 352
348 348 345 347 350 348 348 345 348 353 358 1 4 5 7 8 11 8 5 6 3 360 0 358 356 351 349 351 348 346 349 349 345 341 345 340 346 347 352 354 353 355 350 347 347 348 349 352 350 354 5 358
339 344 340 344 346 345 344 343 343 348 353 355 359 360 2 4 7 6 4 4 4 0 0 358 356 350 347 349 349 349 349 350 345 346 343 350 344 354 359 358 1 356 350 347 344 346 346 350 350 351 359 358
337 333 338 345 345 345 344 343 343 347 349 350 353 353 354 358 1 358 358 360 360 2 1 357 353 352 349 347 350 352 353 350 349 344 349 349 353 357 5 8 10 359 353 348 344 343 344 347 348 349 349 352
333 328 340 345 343 348 349 350 348 348 347 345 345 344 344 348 343 345 342 344 347 360 357 356 354 354 350 349 349 352 357 353 351 352 350 353 358 3 4 12 11 8 357 350 347 343 342 344 344 345 344 348
323 333 340 340 343 342 350 349 351 346 341 344 338 338 338 330 334 333 326 331 335 351 352 354 355 354 353 354 350 350 357 357 353 355 355 354 2 5 8 7 9 0 359 355 350 346 342 341 338 339 344 347
331 338 341 341 345 343 351 352 353 347 347 343 343 339 334 331 328 318 324 319 329 336 349 348 355 356 358 358 355 348 357 355 356 358 358 1 359 7 9 7 359 353 353 354 354 347 344 337 337 334 338 345
339 348 351 344 342 348 347 353 350 352 351 350 347 344 336 333 320 319 315 310 312 321 328 331 339 357 2 356 353 351 350 352 351 359 359 358 4 7 4 12 0 348 347 350 351 347 341 337 336 333 334 340
337 360 341 344 335 350 348 356 351 353 354 351 349 347 338 326 324 318 310 299 294 296 301 315 326 341 357 352 340 352 335 340 340 349 346 342 356 356 359 357 357 351 351 348 345 344 340 337 334 332 332 336
329 5 339 345 346 346 347 358 350 351 354 350 352 345 339 329 329 321 310 303 293 282 284 297 314 336 357 345 346 346 342 337 334 342 342 348 349 348 352 352 348 349 351 342 342 341 338 337 338 331 332 334
248 284 332 310 332 347 325 6 348 351 347 350 345 341 344 338 331 322 310 306 292 282 271 280 301 315 331 358 354 349 346 335 334 336 337 346 344 342 339 345 339 338 345 344 336 334 333 336 333 331 329 329
228 237 295 322 352 337 319 6 348 342 344 338 338 346 343 342 332 327 322 312 303 289 280 277 295 296 308 352 359 359 342 341 337 328 335 332 340 342 337 338 337 336 338 338 336 329 330 331 332 328 325 323
200 229 251 254 308 323 328 351 335 325 324 332 336 337 342 344 341 340 337 325 316 309 288 307 307 284 10 345 356 357 344 349 334 329 334 332 335 338 333 336 332 336 332 332 332 333 328 330 325 325 326 323
202 207 221 228 278 288 325 314 316 327 331 331 333 333 341 339 335 345 352 345 342 333 328 327 325 308 23 6 350 340 346 351 331 334 333 327 328 334 330 337 330 332 322 328 327 325 327 323 318 321 323 322
213 205 229 240 272 282 300 320 321 333 329 327 328 327 330 326 329 332 348 356 349 359 357 1 7 21 4 3 358 339 336 338 328 333 324 331 327 331 324 330 327 323 319 318 319 318 321 316 316 316 316 314
207 225 237 243 268 306 309 319 322 322 327 318 319 316 318 320 324 313 332 345 1 5 6 12 16 7 2 1 350 345 337 331 332 322 316 326 313 321 309 321 320 316 321 313 307 305 308 305 309 313 310 309
216 221 231 240 264 292 309 311 311 304 307 314 304 310 310 313 315 303 312 321 347 19 19 8 4 6 7 356 344 342 335 329 318 321 319 312 315 322 312 318 311 314 314 310 309 307 301 298 300 302 303 301
219 218 232 237 224 278 297 302 291 290 294 302 305 300 301 306 306 301 291 298 309 306 81 43 9 343 348 342 337 329 332 332 332 322 326 313 325 312 319 312 308 318 311 308 308 305 300 297 293 292 293 292
212 219 224 235 247 252 270 281 279 277 281 285 293 293 293 301 302 287 291 299 309 310 292 294 285 295 313 322 324 322 334 330 327 318 319 321 318 303 304 297 303 308 297 305 304 302 302 297 293 288 281 280
217 224 214 228 246 247 244 268 266 274 274 284 288 283 290 295 292 268 338 309 316 317 311 285 299 298 301 305 309 322 314 320 323 326 315 312 310 314 302 302 302 299 297 296 297 298 297 292 289 280 272 272
214 209 220 223 238 253 254 259 266 270 273 279 280 282 288 300 284 287 334 321 312 315 316 286 296 292 298 304 312 315 305 299 309 313 311 308 308 302 303 304 300 301 299 297 293 295 293 289 284 277 268 259
208 212 220 227 238 258 261 260 265 266 266 278 282 277 291 287 276 282 305 313 310 309 302 297 298 295 298 297 300 302 293 291 292 289 299 304 308 309 305 307 308 306 304 301 296 294 291 286 280 274 266 258
212 215 227 238 238 245 252 257 256 251 267 273 276 280 285 270 259 279 281 299 298 303 299 295 289 290 303 300 297 297 291 291 297 301 295 299 306 305 302 304 308 306 305 304 297 291 284 281 278 268 262 258
211 213 230 242 241 246 246 251 256 256 258 265 265 277 271 254 253 260 278 283 290 296 296 285 284 291 300 297 296 291 288 302 310 310 310 307 308 310 307 305 304 310 308 302 296 285 286 284 274 267 262 259
202 213 229 230 230 245 248 253 252 247 248 256 266 268 261 249 249 255 261 275 285 290 291 285 276 288 297 298 291 286 294 312 304 307 318 312 308 309 312 313 317 321 319 315 306 301 297 288 268 261 262 257
204 208 212 220 232 245 249 252 254 264 264 263 263 264 254 246 247 249 254 268 278 286 279 276 269 284 292 297 289 283 311 302 311 316 314 322 313 313 324 314 332 333 350 331 337 332 320 306 290 288 158 190
212 208 214 208 223 215 254 240 242 256 260 264 265 262 255 249 246 245 252 250 272 278 271 267 270 273 282 272 289 301 297 300 293 305 315 321 321 322 318 312 346 351 2 324 333 309 309 329 348 336 32 4
209 210 207 211 214 229 235 251 260 260 261 258 258 259 251 243 238 241 249 249 262 272 268 265 264 270 260 242 282 296 295 290 286 291 305 313 314 323 318 329 333 4 346 342 343 357 337 318 14 345 22 338
191 201 206 202 222 229 246 255 254 258 260 249 252 259 245 240 236 245 247 245 260 269 261 261 259 260 242 237 277 290 283 276 274 285 287 297 303 320 317 318 323 336 343 346 4 346 8 350 21 299 355 340
187 199 197 199 210 227 230 247 230 240 253 263 259 253 253 250 251 252 244 246 262 258 258 254 253 246 236 250 273 278 276 272 269 269 270 263 298 305 305 311 318 318 337 345 350 336 255 308 317 335 328 6
192 200 203 205 211 219 230 243 250 237 244 256 261 257 252 255 249 240 243 254 257 253 253 254 246 239 246 261 265 269 265 262 261 263 259 249 276 286 290 308 299 310 314 326 319 303 331 343 321 313 323 258